GW0891 Weather Reports


Display with metric or nautical units.
time (UTC)temp
F
wind
direction
speed
MPH
gust
MPH
rain 1hr
in
rain 24hr
in
rain mn
in
humidity
%
barometer
mb
20260503020419 73 45 0.0 0.0 0.00 0.00 0.00 31 1013.4
20260503015915 73 31 0.0 0.0 0.00 0.00 0.00 30 1013.4
20260503015413 73 24 0.0 0.0 0.00 0.00 0.00 31 1013.5
20260503014908 74 45 0.0 0.0 0.00 0.00 0.00 29 1013.5
20260503014406 74 39 0.0 0.0 0.00 0.00 0.00 29 1013.2
20260503013904 74 53 0.0 0.0 0.00 0.00 0.00 29 1013.2
20260503013400 75 46 0.0 0.0 0.00 0.00 0.00 28 1013.5
20260503012857 75 18 0.0 2.0 0.00 0.00 0.00 28 1013.5
20260503012355 75 11 1.0 3.0 0.00 0.00 0.00 27 1013.4
20260503011852 76 26 0.0 0.0 0.00 0.00 0.00 25 1013.4
20260503011349 77 26 0.0 0.0 0.00 0.00 0.00 22 1013.4
20260503010845 77 24 0.0 0.0 0.00 0.00 0.00 22 1013.4
20260503010342 77 57 0.0 0.0 0.00 0.00 0.00 20 1013.4
20260503005839 78 34 0.0 0.0 0.00 0.00 0.00 20 1013.4
20260503005337 78 337 1.0 3.0 0.00 0.00 0.00 20 1013.5
20260503004833 78 40 0.0 1.0 0.00 0.00 0.00 20 1013.4
20260503004330 79 56 0.0 0.0 0.00 0.00 0.00 19 1013.6
20260503003828 79 28 0.0 0.0 0.00 0.00 0.00 20 1013.5
20260503003325 80 348 0.0 0.0 0.00 0.00 0.00 16 1013.7
20260503002821 80 36 0.0 0.0 0.00 0.00 0.00 18 1013.5
20260503002318 79 29 0.0 1.0 0.00 0.00 0.00 17 1013.7
20260503001815 79 313 0.0 2.0 0.00 0.00 0.00 19 1013.7
20260503001311 79 32 0.0 0.0 0.00 0.00 0.00 21 1013.6
20260503000809 79 24 0.0 1.0 0.00 0.00 0.00 16 1013.6
20260503000306 78 30 0.0 0.0 0.00 0.00 0.00 17 1013.9
20260502235803 79 353 0.0 2.0 0.00 0.00 0.00 18 1013.7
20260502235301 79 65 0.0 2.0 0.00 0.00 0.00 18 1013.9
20260502234757 79 59 0.0 0.0 0.00 0.00 0.00 18 1013.8
20260502234254 80 31 0.0 1.0 0.00 0.00 0.00 17 1013.8
20260502233750 81 0 0.0 2.0 0.00 0.00 0.00 19 1013.7
20260502233247 83 314 0.0 2.0 0.00 0.00 0.00 17 1013.7
20260502232743 83 16 0.0 0.0 0.00 0.00 0.00 16 1013.8
20260502232240 83 240 0.0 1.0 0.00 0.00 0.00 18 1014.0
20260502231736 82 108 0.0 1.0 0.00 0.00 0.00 15 1013.9
20260502231234 80 238 0.0 1.0 0.00 0.00 0.00 20 1014.0
20260502230733 80 7 0.0 0.0 0.00 0.00 0.00 18 1014.2
20260502230231 80 87 1.0 2.0 0.00 0.00 0.00 15 1014.1
20260502225727 81 68 0.0 1.0 0.00 0.00 0.00 17 1014.1
20260502225224 81 161 0.0 1.0 0.00 0.00 0.00 16 1014.2
20260502224720 80 66 0.0 1.0 0.00 0.00 0.00 20 1014.3
20260502224217 80 83 0.0 1.0 0.00 0.00 0.00 19 1014.3
20260502223714 80 90 0.0 0.0 0.00 0.00 0.00 23 1014.2
20260502223212 80 155 0.0 0.0 0.00 0.00 0.00 17 1014.7
20260502222710 81 36 0.0 2.0 0.00 0.00 0.00 20 1014.3
20260502222206 81 68 0.0 1.0 0.00 0.00 0.00 18 1014.6
20260502221702 80 163 0.0 2.0 0.00 0.00 0.00 17 1014.7
20260502221159 81 57 0.0 1.0 0.00 0.00 0.00 20 1014.6
20260502220655 81 121 0.0 0.0 0.00 0.00 0.00 19 1014.8
20260502220152 81 46 0.0 2.0 0.00 0.00 0.00 23 1014.8
20260502215649 81 46 0.0 5.0 0.00 0.00 0.00 20 1015.1
20260502215145 81 129 0.0 0.0 0.00 0.00 0.00 22 1015.1
20260502214643 81 256 0.0 2.0 0.00 0.00 0.00 18 1015.2
20260502214140 81 248 0.0 0.0 0.00 0.00 0.00 23 1015.1
20260502213637 81 86 0.0 3.0 0.00 0.00 0.00 22 1015.3
20260502213134 81 115 0.0 5.0 0.00 0.00 0.00 23 1015.2
20260502212633 82 37 1.0 6.0 0.00 0.00 0.00 21 1015.3
20260502212131 81 267 0.0 1.0 0.00 0.00 0.00 19 1015.4
20260502211626 80 220 3.0 6.0 0.00 0.00 0.00 18 1015.4
20260502211124 80 89 0.0 5.0 0.00 0.00 0.00 19 1015.5
20260502210621 79 40 1.0 5.0 0.00 0.00 0.00 20 1015.4
20260502210118 79 0 0.0 3.0 0.00 0.00 0.00 20 1015.5
20260502205614 80 327 0.0 0.0 0.00 0.00 0.00 21 1015.6
20260502205111 80 201 3.0 6.0 0.00 0.00 0.00 18 1015.7
20260502204608 80 181 1.0 5.0 0.00 0.00 0.00 20 1015.5
20260502204106 81 187 1.0 3.0 0.00 0.00 0.00 19 1015.9
20260502203603 81 49 0.0 3.0 0.00 0.00 0.00 22 1015.9
20260502203100 81 179 0.0 5.0 0.00 0.00 0.00 20 1015.9
20260502202555 80 49 2.0 5.0 0.00 0.00 0.00 22 1015.7
20260502202054 80 73 0.0 0.0 0.00 0.00 0.00 23 1016.1
20260502201550 80 81 0.0 1.0 0.00 0.00 0.00 20 1016.1
20260502201046 80 77 0.0 5.0 0.00 0.00 0.00 22 1016.1
20260502200542 80 214 2.0 5.0 0.00 0.00 0.00 21 1016.1
20260502200041 79 59 0.0 2.0 0.00 0.00 0.00 24 1016.1
20260502195538 77 55 0.0 1.0 0.00 0.00 0.00 28 1016.3
20260502195033 77 161 1.0 5.0 0.00 0.00 0.00 25 1016.4
20260502194530 77 198 3.0 3.0 0.00 0.00 0.00 25 1016.5
20260502194026 77 33 0.0 2.0 0.00 0.00 0.00 27 1016.5
20260502193524 76 140 0.0 0.0 0.00 0.00 0.00 30 1016.6
20260502193020 75 124 0.0 3.0 0.00 0.00 0.00 30 1016.7
20260502192516 76 160 2.0 3.0 0.00 0.00 0.00 33 1016.7
20260502192014 76 74 0.0 3.0 0.00 0.00 0.00 28 1016.8
20260502191511 76 218 0.0 1.0 0.00 0.00 0.00 31 1016.9
20260502191009 75 188 3.0 3.0 0.00 0.00 0.00 30 1016.9
20260502190506 75 169 0.0 1.0 0.00 0.00 0.00 32 1017.0
20260502190002 74 39 0.0 1.0 0.00 0.00 0.00 32 1017.0
20260502185457 74 50 0.0 0.0 0.00 0.00 0.00 30 1017.4
20260502184954 73 64 0.0 0.0 0.00 0.00 0.00 32 1017.4
20260502184450 73 216 0.0 0.0 0.00 0.00 0.00 33 1017.4
20260502183947 73 206 0.0 0.0 0.00 0.00 0.00 30 1017.6
20260502183443 72 134 0.0 1.0 0.00 0.00 0.00 36 1017.6
20260502182938 71 256 0.0 0.0 0.00 0.00 0.00 33 1017.7
20260502182434 70 262 2.0 2.0 0.00 0.00 0.00 35 1017.7
20260502181930 70 11 0.0 3.0 0.00 0.00 0.00 43 1017.7
20260502181429 69 286 0.0 2.0 0.00 0.00 0.00 37 1017.9
20260502180927 69 275 0.0 0.0 0.00 0.00 0.00 42 1017.9
20260502180424 69 4 0.0 1.0 0.00 0.00 0.00 41 1018.0
20260502170342 66 355 0.0 0.0 0.00 0.00 0.00 41 1018.3
20260502164330 63 322 1.0 2.0 0.00 0.00 0.00 47 1018.5
20260502163826 63 16 0.0 0.0 0.00 0.00 0.00 46 1018.5
20260502163322 62 35 0.0 0.0 0.00 0.00 0.00 45 1018.5
20260502162820 62 338 0.0 1.0 0.00 0.00 0.00 44 1018.2
20260502162316 61 347 0.0 0.0 0.00 0.00 0.00 46 1018.6
20260502161813 60 153 0.0 1.0 0.00 0.00 0.00 47 1018.3
20260502161309 60 301 0.0 2.0 0.00 0.00 0.00 47 1018.7
20260502160807 59 46 0.0 3.0 0.00 0.00 0.00 51 1018.6
20260502160306 58 211 1.0 5.0 0.00 0.00 0.00 51 1018.7
20260502152235 56 13 0.0 1.0 0.00 0.00 0.00 52 1018.5
20260502151733 55 53 0.0 0.0 0.00 0.00 0.00 54 1018.3
20260502151230 54 40 0.0 0.0 0.00 0.00 0.00 58 1018.1
20260502150727 53 42 0.0 0.0 0.00 0.00 0.00 60 1018.1
20260502150224 53 44 0.0 0.0 0.00 0.00 0.00 62 1018.2
20260502130612 46 52 0.0 0.0 0.00 0.00 0.00 67 1017.3
20260502130110 46 55 0.0 0.0 0.00 0.00 0.00 68 1017.4
20260502123555 47 58 0.0 0.0 0.00 0.00 0.00 64 1017.0
20260502123052 48 52 0.0 0.0 0.00 0.00 0.00 63 1017.5
20260502122548 48 51 0.0 0.0 0.00 0.00 0.00 61 1017.4
20260502122046 48 54 0.0 0.0 0.00 0.00 0.00 59 1017.2
20260502121543 48 63 0.0 0.0 0.00 0.00 0.00 59 1017.4
20260502121041 47 62 0.0 0.0 0.00 0.00 0.00 61 1017.4
20260502120537 47 62 0.0 0.0 0.00 0.00 0.00 60 1017.4
20260502115532 48 58 0.0 0.0 0.00 0.00 0.00 59 1017.2
20260502115027 48 57 0.0 0.0 0.00 0.00 0.00 60 1017.4
20260502114524 47 60 0.0 0.0 0.00 0.00 0.00 62 1017.6
20260502114021 47 64 0.0 0.0 0.00 0.00 0.00 62 1017.4
20260502113518 47 59 0.0 0.0 0.00 0.00 0.00 62 1017.5
20260502113017 47 59 0.0 0.0 0.00 0.00 0.00 61 1017.6
20260502112515 48 67 0.0 0.0 0.00 0.00 0.00 59 1017.4
20260502112012 48 60 0.0 0.0 0.00 0.00 0.00 60 1017.5
20260502111509 48 61 0.0 0.0 0.00 0.00 0.00 58 1017.5
20260502111006 48 60 0.0 0.0 0.00 0.00 0.00 57 1017.6
20260502110504 48 58 0.0 0.0 0.00 0.00 0.00 59 1017.7
20260502110001 49 60 0.0 0.0 0.00 0.00 0.00 57 1017.9
20260502105459 49 60 0.0 0.0 0.00 0.00 0.00 56 1017.7
20260502104956 49 57 0.0 0.0 0.00 0.00 0.00 57 1017.6
20260502104453 49 61 0.0 0.0 0.00 0.00 0.00 57 1017.7
20260502103950 49 52 0.0 0.0 0.00 0.00 0.00 57 1017.7
20260502103448 50 61 0.0 0.0 0.00 0.00 0.00 56 1017.6
20260502102944 50 51 0.0 0.0 0.00 0.00 0.00 56 1017.5
20260502102442 48 59 0.0 0.0 0.00 0.00 0.00 59 1017.7
20260502101938 48 59 0.0 0.0 0.00 0.00 0.00 59 1017.6
20260502101437 48 54 0.0 0.0 0.00 0.00 0.00 59 1017.8
20260502100934 48 56 0.0 0.0 0.00 0.00 0.00 59 1017.6
20260502100434 48 63 0.0 0.0 0.00 0.00 0.00 59 1017.6
20260502091408 47 62 0.0 0.0 0.00 0.00 0.00 61 1017.6
20260502090905 47 59 0.0 0.0 0.00 0.00 0.00 63 1017.7
20260502090402 47 59 0.0 0.0 0.00 0.00 0.00 61 1017.8
20260502071256 52 58 0.0 0.0 0.00 0.00 0.00 51 1018.0
20260502070755 52 57 0.0 0.0 0.00 0.00 0.00 52 1018.1
20260502070252 52 57 0.0 0.0 0.00 0.00 0.00 51 1018.0
20260502065751 52 57 0.0 0.0 0.00 0.00 0.00 52 1018.0
20260502065248 52 56 0.0 0.0 0.00 0.00 0.00 52 1018.1
20260502064746 52 56 0.0 0.0 0.00 0.00 0.00 52 1018.3
20260502064244 52 56 0.0 0.0 0.00 0.00 0.00 52 1018.3
20260502063741 52 56 0.0 0.0 0.00 0.00 0.00 52 1018.2
20260502063239 53 55 0.0 0.0 0.00 0.00 0.00 51 1018.0
20260502062736 53 55 0.0 0.0 0.00 0.00 0.00 51 1018.0
20260502062233 53 54 0.0 0.0 0.00 0.00 0.00 51 1018.2
20260502061732 53 54 0.0 0.0 0.00 0.00 0.00 51 1017.9
20260502061229 53 60 0.0 0.0 0.00 0.00 0.00 51 1018.2
20260502060724 53 60 0.0 0.0 0.00 0.00 0.00 51 1018.1
20260502060220 53 60 0.0 0.0 0.00 0.00 0.00 51 1018.1
20260502055718 53 60 0.0 0.0 0.00 0.00 0.00 51 1018.1
20260502055216 53 61 0.0 0.0 0.00 0.00 0.00 51 1018.1
20260502054715 53 62 0.0 0.0 0.00 0.00 0.00 52 1018.1
20260502054212 53 61 0.0 0.0 0.00 0.00 0.00 52 1018.2
20260502053710 53 62 0.0 0.0 0.00 0.00 0.00 52 1018.2
20260502053206 53 63 0.0 0.0 0.00 0.00 0.00 54 1018.2
20260502052704 53 65 0.0 0.0 0.00 0.00 0.00 52 1018.3
20260502052203 53 69 0.0 0.0 0.00 0.00 0.00 51 1018.2
20260502051700 53 74 0.0 0.0 0.00 0.00 0.00 51 1018.3
20260502051158 53 55 0.0 0.0 0.00 0.00 0.00 51 1018.1
20260502050654 53 55 0.0 0.0 0.00 0.00 0.00 51 1018.2
20260502050151 53 55 0.0 0.0 0.00 0.00 0.00 51 1018.1
20260502045647 53 54 0.0 0.0 0.00 0.00 0.00 52 1018.5
20260502045145 54 54 0.0 0.0 0.00 0.00 0.00 52 1018.1
20260502044642 54 53 0.0 0.0 0.00 0.00 0.00 51 1018.1
20260502044138 54 49 0.0 0.0 0.00 0.00 0.00 51 1018.2
20260502043636 54 49 0.0 0.0 0.00 0.00 0.00 51 1018.2
20260502043133 55 49 0.0 0.0 0.00 0.00 0.00 50 1018.3
20260502042632 55 49 0.0 0.0 0.00 0.00 0.00 49 1018.3
20260502042129 56 49 0.0 0.0 0.00 0.00 0.00 48 1018.3
20260502041627 56 49 0.0 0.0 0.00 0.00 0.00 47 1018.5
20260502041124 56 49 0.0 0.0 0.00 0.00 0.00 47 1018.3
20260502040621 55 49 0.0 0.0 0.00 0.00 0.00 49 1018.2
20260502040118 55 49 0.0 0.0 0.00 0.00 0.00 47 1018.2
20260502035614 56 49 0.0 0.0 0.00 0.00 0.00 47 1018.0
20260502035111 56 49 0.0 0.0 0.00 0.00 0.00 49 1018.0
20260502034609 56 49 0.0 0.0 0.00 0.00 0.00 47 1018.0
20260502034107 57 49 0.0 0.0 0.00 0.00 0.00 46 1017.7
20260502033605 58 49 0.0 0.0 0.00 0.00 0.00 43 1018.0
20260502033102 59 49 0.0 0.0 0.00 0.00 0.00 41 1017.9
20260502032558 60 49 0.0 0.0 0.00 0.00 0.00 40 1017.8
20260502032055 61 49 0.0 0.0 0.00 0.00 0.00 39 1017.8
20260502031553 61 49 0.0 0.0 0.00 0.00 0.00 38 1017.6
20260502031050 62 49 0.0 0.0 0.00 0.00 0.00 37 1017.7
20260502030550 62 65 0.0 0.0 0.00 0.00 0.00 37 1017.7
20260502030047 62 65 0.0 0.0 0.00 0.00 0.00 35 1017.7
20260502025544 63 65 0.0 0.0 0.00 0.00 0.00 32 1017.7
20260502025042 63 65 0.0 0.0 0.00 0.00 0.00 31 1017.4
20260502024539 63 66 0.0 0.0 0.00 0.00 0.00 34 1017.5
20260502024037 64 66 0.0 0.0 0.00 0.00 0.00 31 1017.5
20260502023534 65 66 0.0 0.0 0.00 0.00 0.00 32 1017.5
20260502023032 67 66 0.0 0.0 0.00 0.00 0.00 30 1017.5
20260502022528 68 66 0.0 0.0 0.00 0.00 0.00 29 1017.6
20260502022026 69 67 0.0 0.0 0.00 0.00 0.00 27 1017.4
20260502021523 70 67 0.0 0.0 0.00 0.00 0.00 25 1017.4
20260502021020 70 67 0.0 0.0 0.00 0.00 0.00 24 1017.6